User: anonymous   Login
Location: Mt. Chestnut Observatory
(40.9038°N, 79.9956°W)
Time: 09:24:00
(UTC-04:00)
Language:

Cosmos 2034 Rocket - Orbit

View from above orbital plane
View from above orbital plane
View from above satellite
View from above satellite

Ground track
Ground track

The orbit data is extracted from the following two-line orbital elements,

1 20150U 89059B   15141.98218442  .00000010  00000-0 -52511-5 0  9990
2 20150 082.9383 295.8124 0027846 235.3056 240.2399 13.75598700296286
Epoch (UTC): 21 May 2015 23:34:20
Eccentricity: 0.0027846
inclination: 82.9383°
perigee height: 959 km
apogee height: 1000 km
right ascension of ascending node: 295.8124°
argument of perigee: 235.3056°
revolutions per day: 13.75598700
mean anomaly at epoch: 240.2399°
orbit number at epoch: 29628

The dashed part of the orbit path shows where the satellite is in the earth's shadow,  

DLR